GOES 15

Last updated on Dec. 11, 2019, 4:28 a.m. UTC

1 36411U 10008A   19344.60868201  .00000074  00000-0  00000+0 0  9996
2 36411   0.1692 274.2181 0001457 301.2716 314.5591  1.00279770 35792
UTC
Height (km)
Latitude
Longitude
Inclination
Orbital Period
UTC large
Height (km)
Speed (km/s)
/
Latitude / Longitude
Inclination (degrees)
Orbital Period (minutes)
Azimuth
Elevation
Range (km)
Doppler Factor
iOS Compass Heading
iOS Angle

Next 30 passes for location: Hong Kong

Rise time Rise Azimuth (degrees) Set time Set Azimuth (degrees) Duration Max altitude (degrees)

No matching passes for this satellites